Temperature
21 20 21 20 20 20 20 20 20 20 20 20 20 20 20 20 20 20 19 19 19 19 19 19 19 19 19 19 20 20 20 19 19 19 19 19 19 18 18 18 17 17 18
21 21 22 21 20 20 20 20 20 20 20 20 20 20 20 20 20 20 20 19 19 19 19 19 19 19 20 20 20 20 20 19 19 19 19 19 19 19 18 18 17 17 18
21 21 22 21 21 20 20 20 20 20 20 20 20 20 20 20 20 20 20 20 20 20 20 20 20 20 20 20 20 20 19 19 19 19 19 18 18 19 19 18 18 18 18
21 21 21 21 21 21 20 20 20 20 20 20 20 20 20 20 20 20 20 20 20 20 20 20 20 20 20 20 19 19 19 19 19 19 18 18 17 18 18 18 18 18 18
21 20 21 21 21 21 21 20 20 20 20 20 20 20 20 20 20 20 20 20 20 20 19 19 19 19 19 19 19 19 19 19 19 18 17 17 17 18 18 18 18 18 18
21 20 21 21 21 21 21 21 20 20 20 20 20 20 20 20 20 20 20 19 19 19 19 19 19 19 19 19 19 19 19 18 18 17 17 17 17 17 18 18 18 17 17
21 21 21 22 21 21 21 21 21 20 20 20 20 20 20 20 19 19 19 19 19 19 19 19 19 19 18 18 18 18 18 18 18 18 17 17 17 17 18 18 17 17 17
21 21 21 22 21 21 21 21 21 20 20 20 20 20 20 20 19 19 19 19 19 19 19 19 19 18 18 18 18 18 18 18 17 17 17 17 17 17 18 18 17 17 17
21 21 20 21 21 21 21 21 20 20 20 20 20 20 20 19 19 19 19 19 19 19 19 19 19 18 18 18 18 18 18 18 18 17 18 17 17 18 18 18 17 17 17
21 20 20 20 20 20 20 20 20 20 20 20 20 19 19 19 19 19 19 19 19 19 19 19 19 18 18 18 18 18 18 18 17 17 18 18 17 18 18 18 18 17 17
20 20 20 19 19 19 19 19 20 20 20 19 19 19 19 19 18 18 19 19 19 19 19 19 19 19 18 18 18 18 18 17 18 18 18 18 17 18 17 18 18 18 17
21 20 20 20 19 19 19 19 19 19 18 19 18 18 18 18 18 18 18 19 19 19 19 19 19 19 18 18 18 18 18 17 18 18 18 18 18 18 17 18 18 18 18
22 21 21 20 20 20 19 19 18 18 18 18 18 18 18 18 18 18 18 18 18 19 18 18 18 18 18 18 18 18 18 18 18 18 18 18 18 18 18 18 18 18 18
22 22 21 21 21 21 20 19 19 19 18 18 18 18 18 18 18 18 18 18 18 18 18 18 18 18 18 18 18 18 18 18 18 18 18 18 18 18 18 18 18 18 18
22 22 22 21 21 21 21 21 20 19 19 18 18 18 18 18 18 18 18 18 18 18 18 18 18 18 18 18 18 18 18 18 18 18 18 18 18 18 18 18 18 18 18
22 22 21 22 21 21 21 21 20 19 19 19 18 18 18 18 18 18 18 18 18 18 18 18 18 18 18 18 18 18 18 18 18 18 18 18 18 19 19 18 18 18 18
22 22 22 22 21 21 21 20 20 19 19 18 18 18 18 18 18 18 18 18 18 18 18 18 18 18 18 18 18 18 18 18 18 18 18 18 18 19 19 19 19 18 18
22 21 21 21 21 21 20 20 19 19 19 18 18 18 18 18 18 18 18 18 18 18 18 18 18 18 18 18 18 18 18 18 18 18 18 18 18 18 18 18 19 19 18
21 21 21 21 20 20 20 20 19 19 19 18 18 18 18 17 17 17 17 17 17 17 17 17 17 17 17 17 17 17 17 17 18 18 18 18 18 18 18 18 18 19 19
21 21 21 21 21 20 20 20 19 19 19 18 18 18 17 17 17 17 17 17 17 17 17 17 17 17 17 17 17 17 17 17 17 17 18 18 17 17 17 18 18 18 18
21 21 21 21 21 21 20 19 19 19 18 18 18 17 17 17 17 17 16 16 16 17 17 17 17 17 17 17 16 16 17 17 17 17 17 17 17 17 17 17 18 18 18
21 21 21 21 21 21 20 20 20 19 18 18 17 17 17 16 16 16 16 16 16 16 16 16 16 16 16 16 16 16 16 17 17 17 17 17 17 17 17 17 17 17 18
21 21 21 21 21 20 20 19 19 18 18 18 17 17 16 16 16 16 16 16 16 16 16 16 16 16 16 16 16 16 16 17 18 18 17 17 17 17 17 17 17 17 17
20 20 20 20 20 20 20 19 19 18 18 18 17 17 16 16 16 16 16 16 16 15 15 15 15 15 15 15 16 15 15 16 16 17 17 17 16 16 16 16 16 16 16
20 20 19 20 20 19 19 19 19 18 18 17 17 17 16 16 16 15 15 15 15 15 15 15 15 15 15 15 15 15 15 15 15 15 16 16 16 16 16 16 16 16 16
19 19 19 19 19 19 19 18 18 18 17 17 17 16 16 16 15 15 15 15 15 14 14 14 14 14 14 14 14 15 15 15 15 15 16 16 16 16 16 16 16 16 16
Wind_Speed
14 19 23 18 17 16 16 15 15 15 15 15 14 13 12 11 10 9 8 8 7 8 8 8 8 8 9 9 9 10 9 9 9 9 9 8 7 7 7 7 6 9 11
17 21 23 19 18 17 16 16 15 15 15 14 14 13 12 11 10 9 8 7 7 7 7 7 7 7 7 8 8 8 8 8 8 8 8 8 7 5 5 3 4 9 9
18 21 22 19 18 17 16 16 15 15 14 13 13 12 11 10 9 8 7 7 6 6 6 5 5 6 6 6 6 7 7 6 6 6 7 7 9 6 5 3 2 7 7
18 20 20 20 18 17 16 15 15 14 14 13 12 11 10 9 8 8 7 6 5 4 4 4 4 4 4 5 5 5 5 5 5 6 8 3 6 10 6 5 5 6 7
17 18 19 21 19 17 16 15 14 14 13 12 11 11 10 9 8 7 6 5 4 4 3 3 3 3 3 4 4 4 4 4 5 10 4 3 3 10 7 7 8 9 9
17 17 20 20 18 17 16 15 14 13 13 12 11 10 10 9 8 7 6 5 5 4 4 4 4 3 4 4 4 4 5 5 8 11 6 6 5 9 7 9 11 11 12
17 16 20 19 18 17 16 15 14 13 13 12 11 11 10 9 8 8 7 7 6 6 6 5 5 5 5 6 6 6 6 7 11 10 7 9 6 7 7 10 11 13 14
15 15 18 18 17 17 16 15 14 14 13 12 12 11 11 10 10 9 9 9 9 9 8 8 8 8 8 8 8 8 8 10 12 12 10 10 6 7 9 12 13 14 16
14 13 15 17 17 16 15 14 14 13 13 12 12 12 11 11 11 11 11 11 11 11 10 10 10 10 10 10 10 10 10 11 13 12 12 10 8 10 11 13 14 15 17
12 12 12 14 14 15 15 15 13 13 12 12 12 12 12 12 13 13 13 14 13 12 12 12 12 12 12 12 12 12 12 12 15 15 12 9 11 10 13 15 15 16 17
12 11 11 12 12 12 12 13 14 13 14 13 13 14 13 13 14 13 16 12 13 13 13 13 13 13 13 15 16 15 14 13 14 12 10 5 9 11 14 16 17 17 18
14 13 12 11 11 11 10 9 11 12 13 13 12 12 12 12 11 11 5 9 13 14 15 16 16 15 15 14 15 17 12 13 13 11 10 9 10 13 15 16 17 18 19
14 13 12 11 10 10 8 8 8 8 8 10 12 11 11 10 10 10 9 9 12 14 14 14 15 14 13 11 9 10 11 11 9 10 9 9 12 14 15 16 17 18 19
13 13 12 12 10 10 9 7 7 7 7 8 9 11 11 8 9 9 8 9 9 9 9 10 9 11 12 12 12 12 12 10 10 10 9 8 12 14 16 16 16 17 19
12 12 11 11 10 9 9 7 8 8 8 9 9 10 11 9 10 9 8 9 11 11 9 9 10 11 11 11 12 12 11 12 12 12 10 10 13 14 15 16 16 17 17
11 11 10 11 10 9 9 9 8 8 8 10 10 11 11 11 10 10 10 10 10 11 11 9 11 11 10 10 11 12 12 13 12 12 13 12 13 15 15 16 17 18 18
10 9 9 9 10 10 10 10 8 9 9 9 9 10 12 13 11 10 11 11 11 12 11 11 11 10 11 11 12 13 12 12 12 12 13 12 12 13 16 17 17 18 19
7 8 8 7 8 8 8 8 7 8 8 8 9 10 11 12 13 11 11 12 11 11 10 10 10 10 11 11 11 11 11 11 13 13 13 13 13 13 13 16 17 18 19
7 6 6 6 5 6 6 6 6 6 7 7 8 8 9 11 12 11 11 11 11 10 10 11 10 10 11 11 11 12 12 12 12 13 13 14 14 13 14 14 17 19 19
7 6 5 5 5 4 4 3 3 4 5 5 5 6 8 8 9 10 10 10 11 10 10 10 12 12 12 11 12 12 12 13 12 12 14 13 13 15 15 16 14 15 19
7 6 6 5 5 4 2 1 2 2 3 3 4 4 6 7 8 8 10 9 10 10 11 12 11 13 12 10 10 11 12 14 14 13 13 13 14 14 14 14 13 12 10
7 6 6 6 5 4 3 2 1 2 3 4 4 4 6 7 7 8 8 9 9 9 11 11 11 11 11 9 8 8 9 10 12 14 12 13 14 12 13 14 13 11 11
5 5 5 4 4 4 4 3 3 3 4 3 4 4 5 7 7 7 8 9 9 10 10 11 11 13 12 11 10 9 8 9 7 8 11 12 12 10 11 10 11 11 11
2 3 3 4 4 4 5 4 4 4 5 5 5 5 6 6 7 8 8 9 9 10 10 11 11 11 12 12 10 11 13 11 9 8 7 9 10 10 10 9 9 9 9
2 3 4 4 5 5 5 5 6 7 6 5 5 6 7 7 7 7 8 8 9 10 11 12 12 13 12 12 11 10 12 12 14 11 10 8 8 8 8 8 7 6 6
5 5 5 5 6 5 6 6 7 8 8 8 8 8 7 6 6 7 8 8 10 10 10 11 12 14 13 13 13 12 11 10 11 12 13 11 9 7 6 5 5 5 4
Wind_Direction
158 151 151 159 156 152 147 143 142 142 143 143 141 139 138 136 132 127 122 116 110 105 102 102 104 102 101 103 106 108 109 108 108 108 107 103 100 101 110 129 169 128 120
152 149 153 161 159 156 151 147 145 145 145 146 145 143 142 140 137 132 128 123 119 114 110 108 108 108 108 110 113 116 119 121 121 121 129 131 121 116 123 147 327 108 136
149 148 157 162 162 160 155 152 151 151 151 150 149 149 148 146 143 140 137 133 128 124 121 120 119 119 119 121 124 128 131 135 139 148 196 168 133 142 151 160 108 124 151
150 152 160 161 165 163 160 158 157 157 157 157 156 156 155 154 153 153 150 147 144 139 137 137 138 137 136 137 141 144 148 155 167 202 219 154 147 143 173 181 177 175 177
151 155 154 162 167 166 165 164 164 164 164 165 165 165 165 166 168 168 168 170 173 172 171 174 176 173 170 170 173 177 183 192 210 240 235 224 189 141 184 200 197 196 195
156 159 154 166 169 170 170 170 171 172 172 174 175 177 179 180 183 187 190 195 204 212 217 218 219 219 216 214 212 215 220 227 240 239 233 237 228 154 198 220 215 210 206
160 158 156 168 172 174 175 177 178 180 182 184 186 189 192 195 200 205 211 217 224 232 239 243 243 241 238 236 235 236 238 243 256 263 250 247 242 156 217 240 232 221 216
160 161 154 168 175 178 181 184 186 189 192 195 198 200 204 209 215 220 226 231 234 236 240 245 249 250 248 245 243 244 246 255 254 256 251 248 207 185 232 246 247 233 224
163 164 161 171 179 184 188 192 195 199 203 206 209 212 216 220 224 229 234 238 240 241 241 244 247 250 251 249 248 247 248 251 265 265 258 251 179 199 233 246 251 245 233
169 172 173 177 182 188 192 196 203 209 214 218 222 225 228 232 233 234 238 233 237 244 246 247 248 250 251 250 249 249 250 253 253 255 251 238 175 208 236 244 248 249 242
179 182 186 182 188 197 202 191 201 212 219 225 228 228 235 243 241 229 233 228 234 243 248 250 250 250 252 247 241 242 245 252 256 257 256 204 181 225 244 247 247 247 245
185 188 194 193 193 201 210 197 214 218 216 224 237 234 235 244 256 261 244 225 243 249 252 250 251 251 248 251 234 221 242 245 257 259 251 189 212 237 249 250 248 247 245
188 192 196 199 202 209 211 218 221 230 230 232 238 244 251 261 257 254 254 233 234 239 246 241 238 244 245 247 257 244 252 264 262 262 257 194 222 241 252 254 251 248 245
193 197 198 199 203 214 225 227 232 237 236 243 240 243 249 251 260 263 262 267 262 250 247 256 253 253 254 257 254 257 259 256 261 266 268 230 236 249 257 259 255 251 247
196 202 203 205 209 212 221 236 239 246 252 249 255 250 253 257 260 264 264 262 265 265 257 251 258 260 257 256 256 256 257 258 256 258 262 243 239 248 257 262 260 255 250
199 202 203 208 212 216 222 229 240 249 248 259 257 257 256 259 263 266 265 264 264 265 264 263 261 263 261 258 255 254 255 257 256 255 258 256 242 243 250 259 263 260 255
199 199 201 208 215 220 230 238 244 250 255 258 262 263 260 261 263 264 268 268 267 268 265 260 262 261 258 254 253 253 253 255 256 255 257 262 261 246 240 245 253 256 256
200 198 203 212 214 222 233 245 256 261 267 267 269 269 268 270 269 267 268 268 269 267 264 261 259 257 256 255 254 253 253 251 250 252 253 253 258 263 255 240 241 248 254
191 192 198 207 218 226 234 244 258 268 271 275 277 277 281 280 279 275 274 276 276 271 266 263 259 258 259 257 256 253 252 251 252 253 254 256 255 255 259 256 237 237 246
175 177 178 189 197 211 221 232 259 267 273 276 284 291 295 292 290 288 281 280 280 275 272 267 266 261 259 260 260 260 255 251 251 251 252 253 251 251 251 256 255 242 233
161 168 173 174 170 189 190 234 262 277 289 291 294 311 305 303 302 294 291 293 285 280 279 277 272 267 261 257 258 261 258 250 248 249 248 249 248 247 248 248 250 254 243
162 165 171 176 174 186 175 201 254 299 295 306 307 307 304 307 306 299 301 296 294 292 283 279 274 270 266 252 249 260 265 256 243 242 240 238 242 243 244 242 242 241 251
163 172 175 176 185 198 200 212 221 235 255 271 292 293 307 308 304 303 300 296 298 290 288 287 280 270 268 262 244 243 255 261 264 241 234 236 236 236 239 243 240 237 237
177 192 203 209 214 217 224 237 258 279 294 308 300 302 302 295 297 298 296 295 294 292 291 285 281 277 271 267 256 242 247 265 265 264 244 233 229 230 234 238 237 234 236
308 267 247 243 245 243 250 258 264 271 286 293 296 293 293 292 288 291 294 295 292 289 290 290 287 279 272 266 263 256 251 250 249 253 258 243 228 225 223 223 229 236 238
344 324 300 282 273 267 262 264 267 279 284 290 290 295 293 294 290 290 293 292 290 291 290 286 284 279 272 269 265 258 252 248 243 241 245 244 239 228 215 214 216 217 219
Height
1519 1520 1521 1524 1527 1530 1533 1536 1538 1540 1542 1544 1545 1546 1547 1548 1549 1549 1550 1551 1551 1552 1553 1553 1554 1554 1555 1555 1555 1555 1555 1555 1556 1556 1556 1556 1556 1556 1556 1557 1557 1559 1558
1519 1520 1522 1525 1528 1531 1534 1537 1539 1541 1543 1545 1546 1547 1548 1549 1550 1551 1552 1552 1553 1554 1554 1555 1555 1556 1556 1556 1557 1557 1557 1557 1557 1558 1558 1558 1558 1558 1558 1559 1559 1561 1560
1519 1520 1523 1526 1529 1532 1535 1538 1540 1542 1544 1546 1547 1548 1550 1550 1551 1552 1553 1553 1554 1555 1555 1556 1556 1557 1557 1557 1558 1558 1558 1559 1559 1559 1559 1562 1560 1560 1560 1560 1560 1561 1561
1520 1522 1524 1527 1530 1533 1536 1538 1541 1543 1545 1546 1548 1549 1550 1551 1552 1553 1553 1554 1555 1555 1556 1556 1557 1557 1557 1558 1558 1559 1559 1559 1560 1560 1562 1564 1563 1561 1561 1561 1561 1561 1562
1522 1524 1525 1528 1530 1533 1536 1539 1541 1543 1545 1547 1548 1549 1550 1551 1552 1553 1553 1554 1555 1555 1556 1556 1556 1557 1557 1558 1558 1558 1559 1559 1559 1560 1564 1563 1563 1561 1561 1561 1561 1562 1562
1523 1526 1526 1528 1531 1534 1537 1539 1541 1543 1545 1546 1548 1549 1550 1551 1552 1552 1553 1554 1554 1555 1555 1555 1556 1556 1556 1557 1557 1557 1558 1558 1559 1561 1563 1562 1563 1561 1561 1561 1561 1561 1562
1525 1527 1527 1529 1532 1534 1537 1539 1541 1543 1545 1546 1547 1548 1549 1550 1551 1551 1552 1553 1553 1553 1554 1554 1554 1555 1555 1555 1556 1556 1556 1556 1557 1561 1561 1561 1561 1559 1559 1560 1560 1560 1561
1527 1529 1528 1530 1532 1534 1537 1539 1541 1542 1544 1546 1547 1548 1549 1549 1550 1550 1551 1551 1551 1552 1552 1552 1552 1553 1553 1554 1554 1554 1554 1555 1556 1558 1558 1558 1557 1556 1557 1558 1558 1559 1559
1528 1530 1529 1530 1532 1534 1536 1538 1540 1542 1544 1545 1546 1547 1548 1548 1548 1549 1549 1549 1549 1549 1550 1550 1550 1551 1551 1551 1552 1552 1552 1552 1552 1555 1556 1556 1554 1554 1554 1555 1556 1556 1557
1527 1529 1531 1532 1533 1535 1536 1538 1540 1541 1543 1544 1545 1545 1546 1546 1546 1547 1547 1547 1547 1547 1547 1547 1548 1548 1548 1549 1549 1549 1549 1549 1550 1552 1553 1552 1550 1551 1551 1551 1552 1553 1554
1526 1528 1530 1532 1533 1535 1538 1538 1539 1540 1541 1542 1543 1544 1544 1545 1546 1546 1545 1544 1545 1545 1545 1545 1545 1545 1546 1546 1546 1547 1547 1547 1550 1550 1550 1549 1548 1548 1548 1548 1549 1549 1551
1524 1526 1529 1532 1533 1535 1537 1538 1539 1540 1541 1541 1543 1543 1543 1544 1544 1544 1543 1542 1542 1542 1542 1542 1542 1542 1542 1543 1544 1543 1544 1545 1546 1546 1546 1544 1544 1544 1544 1545 1545 1546 1547
1524 1526 1528 1530 1531 1534 1536 1538 1538 1540 1540 1540 1541 1540 1541 1541 1541 1541 1541 1540 1539 1539 1539 1539 1539 1539 1540 1541 1541 1541 1542 1543 1542 1543 1543 1540 1540 1541 1541 1541 1541 1542 1543
1523 1525 1528 1529 1530 1531 1534 1536 1536 1537 1538 1539 1539 1538 1539 1538 1538 1538 1537 1538 1537 1536 1536 1536 1536 1537 1536 1537 1537 1537 1537 1537 1537 1537 1537 1536 1536 1536 1537 1537 1538 1538 1539
1522 1525 1526 1528 1529 1530 1531 1532 1534 1535 1536 1536 1535 1535 1535 1535 1535 1535 1533 1532 1532 1533 1532 1531 1532 1532 1531 1531 1532 1532 1532 1532 1532 1532 1532 1531 1531 1532 1532 1533 1533 1534 1535
1522 1524 1525 1526 1528 1528 1529 1530 1531 1532 1532 1532 1532 1532 1531 1530 1530 1530 1529 1528 1527 1527 1528 1527 1527 1526 1526 1526 1526 1526 1526 1526 1526 1526 1526 1526 1526 1526 1527 1528 1529 1529 1530
1521 1523 1523 1524 1526 1527 1528 1528 1529 1529 1529 1529 1529 1527 1526 1526 1526 1525 1524 1523 1522 1522 1521 1521 1521 1520 1520 1520 1520 1520 1520 1519 1519 1519 1520 1520 1520 1520 1521 1522 1523 1524 1525
1520 1520 1521 1523 1524 1525 1526 1526 1526 1527 1526 1525 1525 1524 1523 1522 1521 1520 1519 1518 1517 1516 1516 1515 1514 1514 1514 1514 1513 1513 1513 1513 1512 1512 1513 1513 1514 1514 1515 1516 1517 1518 1519
1517 1518 1519 1521 1522 1523 1524 1524 1524 1523 1522 1522 1521 1520 1519 1518 1517 1515 1514 1513 1512 1511 1510 1509 1509 1508 1508 1507 1506 1506 1506 1506 1505 1505 1506 1506 1507 1507 1508 1510 1510 1511 1512
1515 1516 1518 1519 1520 1521 1522 1522 1521 1521 1520 1519 1518 1516 1515 1514 1512 1511 1510 1508 1507 1505 1504 1503 1503 1502 1501 1501 1500 1500 1499 1498 1498 1498 1498 1499 1499 1500 1501 1503 1504 1504 1505
1514 1516 1517 1518 1519 1520 1520 1521 1520 1520 1519 1518 1516 1514 1512 1510 1509 1507 1506 1504 1502 1501 1499 1498 1497 1496 1495 1495 1494 1493 1492 1491 1490 1490 1490 1491 1492 1493 1494 1495 1497 1498 1499
1513 1515 1516 1517 1518 1518 1519 1518 1518 1517 1516 1515 1513 1511 1509 1507 1505 1504 1502 1500 1498 1496 1494 1493 1492 1490 1489 1490 1489 1488 1486 1485 1483 1483 1482 1483 1484 1486 1487 1489 1490 1491 1492
1514 1515 1516 1516 1516 1517 1517 1517 1516 1515 1514 1513 1511 1509 1506 1504 1502 1499 1497 1495 1493 1492 1490 1488 1487 1486 1484 1484 1483 1483 1482 1479 1478 1477 1476 1477 1478 1479 1481 1483 1484 1484 1485
1513 1514 1514 1514 1515 1515 1515 1515 1514 1513 1513 1511 1508 1506 1503 1500 1498 1496 1494 1491 1489 1488 1486 1484 1483 1480 1479 1478 1477 1476 1476 1475 1475 1473 1472 1472 1472 1473 1475 1476 1478 1479 1480
1513 1513 1513 1513 1512 1512 1512 1511 1511 1511 1509 1508 1505 1502 1500 1497 1495 1492 1490 1487 1485 1483 1481 1478 1476 1475 1474 1472 1471 1470 1469 1468 1469 1469 1468 1467 1467 1468 1469 1471 1472 1473 1475
1511 1511 1511 1511 1510 1509 1509 1508 1507 1506 1505 1504 1501 1499 1497 1495 1492 1489 1486 1483 1481 1478 1476 1473 1471 1469 1467 1466 1465 1464 1463 1462 1462 1462 1462 1462 1463 1463 1464 1465 1467 1468 1470